GFSGBSN_925_rhum_000.txt.gz
RH
97 99 100 98 90 75 74 84 75 78 82 80 96 97 95 94 95 93 90 82 83 92 83 80 80 77 84 98 90 53 59 52 60 75 79 82 87 78 78 69 69 79 66 61 58 55 51
89 89 94 99 100 85 74 76 83 74 84 78 93 98 97 95 96 93 80 86 80 90 89 78 81 81 84 92 52 51 56 56 55 63 71 78 84 72 76 73 71 60 63 63 56 52 50
69 74 77 88 98 100 88 76 83 77 81 85 87 96 94 86 95 93 85 90 91 87 88 85 82 80 96 81 51 48 50 55 52 57 70 72 72 80 73 77 61 62 69 61 59 60 54
82 78 73 77 86 97 100 87 77 81 79 82 83 84 93 89 82 88 85 91 79 93 90 84 78 88 91 58 54 46 45 50 48 49 47 46 44 71 69 63 70 75 73 86 60 59 58
73 78 74 77 80 91 98 97 85 80 74 80 80 82 88 86 82 79 87 84 82 80 87 82 79 85 90 60 62 52 56 57 46 44 44 44 44 58 61 83 86 85 94 80 70 57 59
65 60 68 81 76 80 94 98 98 82 79 79 79 84 83 82 83 80 86 86 86 91 83 87 88 92 77 67 56 55 55 55 49 50 51 55 64 78 87 88 89 71 84 72 69 65 64
65 62 61 72 80 78 82 95 94 97 80 78 80 85 86 84 84 81 89 81 86 91 93 85 76 73 51 56 55 57 57 54 55 60 79 64 89 88 80 83 78 82 84 78 69 55 66
62 58 73 74 76 81 81 87 95 97 90 79 78 86 88 85 87 83 82 92 76 69 93 80 76 70 59 57 65 62 56 69 71 89 78 84 87 69 69 72 78 83 84 85 67 54 62
57 51 68 76 69 76 86 83 90 96 97 79 78 85 91 86 87 94 91 85 75 72 95 81 79 79 67 60 67 72 59 68 70 74 70 87 65 55 68 76 81 81 82 76 80 64 53
58 55 50 72 70 73 82 88 87 94 99 83 81 87 92 92 93 97 95 83 78 76 97 76 83 79 72 63 78 54 53 62 73 81 74 76 66 68 67 75 72 86 65 67 68 81 91
62 64 50 67 72 83 86 90 97 96 93 91 80 88 93 82 72 94 75 82 86 81 74 66 83 59 66 76 68 70 54 59 85 84 81 81 81 81 75 69 60 74 55 60 66 74 84
61 60 60 70 74 90 86 87 91 99 94 94 97 94 93 82 79 77 70 81 86 96 92 93 79 86 86 78 69 64 67 60 65 76 75 74 60 66 66 56 53 60 66 65 69 80 91
62 58 63 66 75 92 89 92 93 97 95 97 98 97 94 82 95 80 83 87 97 95 62 88 89 88 82 86 80 75 92 95 99 99 99 98 93 74 71 80 65 62 74 94 97 96 82
65 61 56 54 63 85 92 88 99 100 93 99 97 98 95 78 73 87 79 94 94 65 83 78 79 86 91 73 86 76 90 95 88 97 100 94 98 86 75 73 77 74 70 86 91 97 78
70 61 61 55 63 82 93 94 100 98 95 89 95 100 98 82 79 78 84 98 82 72 77 86 83 93 92 87 77 86 92 88 69 95 95 97 92 75 72 65 61 78 84 59 78 74 90
74 67 56 68 63 82 96 96 100 98 81 100 99 96 94 79 83 79 90 76 80 67 81 78 94 89 93 82 91 90 88 70 81 74 70 78 97 80 72 70 68 71 60 82 81 100 92
66 67 63 56 64 68 93 98 97 98 97 92 98 97 96 91 81 92 96 88 76 76 75 83 94 96 86 81 86 83 83 70 72 65 74 83 92 98 91 90 84 86 82 70 61 77 98
67 65 65 60 64 68 91 100 98 87 99 90 95 100 100 100 98 97 97 76 62 77 76 79 84 93 90 76 89 85 82 59 58 59 89 75 94 97 80 68 74 65 67 63 68 66 73
74 66 65 58 65 69 93 99 96 99 98 98 95 98 99 92 97 97 82 73 67 79 80 78 91 83 78 70 78 71 62 46 53 63 76 78 99 98 97 90 88 95 63 61 55 67 99
79 69 65 60 65 66 86 91 99 96 99 86 97 98 98 98 87 80 81 82 82 73 69 71 84 80 86 79 64 64 65 53 48 52 63 69 95 100 92 100 86 90 82 69 82 77 71
81 70 68 58 66 64 82 88 98 97 100 96 97 94 83 97 98 85 78 78 82 83 78 80 90 91 88 88 75 76 60 48 58 71 79 83 100 100 94 94 99 88 80 78 94 74 76
80 74 70 60 64 65 81 89 96 98 88 98 97 95 82 82 77 91 84 88 82 79 84 92 95 78 81 88 60 56 57 62 61 77 89 92 99 100 99 85 87 94 85 81 82 88 88
76 76 71 59 60 70 79 86 97 92 93 95 95 90 77 83 82 92 88 82 85 76 80 73 83 84 81 81 64 67 63 56 56 77 84 92 99 100 100 88 84 95 79 84 92 89 88
74 75 71 65 60 74 82 90 97 88 98 100 98 92 93 92 88 85 79 81 86 82 80 82 78 85 67 69 63 70 66 75 61 58 58 79 90 92 100 94 84 47 57 72 84 78 82
72 72 74 70 62 74 82 91 98 90 94 100 100 94 91 93 76 78 78 80 74 85 90 81 81 72 64 72 86 90 94 87 73 64 70 64 72 91 90 86 60 43 43 61 62 62 48
74 74 74 75 64 71 82 90 97 89 91 100 99 90 92 94 92 71 78 74 86 86 90 90 86 78 81 87 95 100 97 80 85 86 71 69 67 80 91 83 68 45 41 38 38 61 43
75 78 72 67 67 74 82 90 95 93 94 99 99 91 90 95 79 77 81 80 80 87 92 94 94 97 85 93 97 99 93 76 93 85 89 85 84 88 89 95 78 54 42 41 54 55 44
76 77 75 68 69 72 77 88 93 94 94 99 98 93 84 91 80 67 68 89 96 88 94 92 99 97 99 98 96 96 77 92 88 80 83 85 89 86 81 93 92 49 38 37 46 52 61
72 80 80 70 74 75 77 87 90 94 97 96 100 99 96 92 92 82 72 66 68 74 91 97 98 94 86 91 90 94 85 94 70 95 68 85 77 80 83 79 58 52 47 53 52 61 64

GFSGBSN_925_rhum_003.txt.gz
RH
77 75 77 81 85 96 99 96 79 77 79 74 87 90 95 97 90 94 95 97 96 91 80 78 80 78 92 94 89 56 68 71 79 83 85 84 88 79 82 73 69 80 73 62 62 62 59
79 81 80 76 79 86 93 96 97 83 80 73 81 88 86 95 96 90 93 95 94 96 88 75 82 86 85 90 50 56 60 62 60 69 81 82 84 78 83 78 74 67 66 65 63 60 58
65 66 70 79 80 80 85 95 98 96 79 80 78 88 89 90 95 87 86 89 88 87 87 80 79 82 94 78 55 51 51 55 54 60 73 74 76 83 79 79 66 67 77 67 63 58 64
67 74 68 63 74 84 76 82 94 100 92 81 77 80 88 92 92 83 81 84 89 85 88 83 81 90 90 60 58 50 53 50 54 55 50 47 51 75 75 62 70 74 76 87 60 61 59
62 62 61 66 71 84 83 81 84 99 99 92 79 75 80 89 95 84 80 77 83 80 87 86 78 82 87 62 68 50 53 53 49 48 49 48 45 57 58 80 85 85 86 84 73 58 61
60 59 57 58 68 78 76 78 85 90 95 99 88 79 80 80 93 82 76 88 84 92 87 86 88 92 78 68 60 57 58 55 52 55 53 56 67 77 82 87 87 83 94 80 82 59 65
60 59 57 54 56 67 73 76 82 86 86 95 99 82 83 81 86 79 91 89 86 88 92 86 80 76 57 57 56 61 59 58 58 65 80 66 90 94 75 83 80 86 87 81 68 60 70
62 63 57 58 56 52 69 74 79 82 88 87 94 89 87 89 87 84 88 89 78 68 91 82 80 74 63 60 68 63 56 71 78 91 81 83 95 77 68 72 79 83 85 82 66 57 58
61 61 59 63 57 61 71 74 79 83 91 94 87 95 88 91 88 96 92 83 70 69 89 79 83 82 74 63 67 72 61 70 82 94 93 88 68 62 68 78 88 87 91 73 70 65 58
65 64 61 60 55 62 71 86 85 82 89 87 93 98 88 99 98 98 94 84 75 72 97 76 93 82 75 65 77 56 56 68 79 92 80 79 63 69 73 77 78 92 72 72 71 78 84
68 65 67 65 59 54 74 84 92 91 91 95 87 94 92 98 90 96 76 86 76 67 80 68 87 59 69 74 67 74 55 62 80 90 80 82 88 81 78 76 66 74 62 67 76 86 88
76 71 70 67 60 58 75 85 96 91 88 88 94 85 99 99 76 79 74 84 77 85 90 91 83 86 90 78 68 68 70 58 68 76 78 75 65 75 75 63 60 58 71 72 71 82 95
76 75 75 64 64 64 88 95 98 92 96 96 96 85 96 87 89 72 81 86 94 96 67 92 78 86 71 86 77 74 86 93 94 99 97 98 88 76 72 77 68 63 75 97 97 95 82
68 73 78 69 65 70 74 86 96 99 100 98 93 88 91 88 71 83 81 92 96 64 88 74 75 92 84 81 83 84 91 94 86 99 100 96 97 92 78 78 81 79 73 86 84 96 79
78 77 73 70 70 63 69 84 89 100 97 95 97 98 91 92 70 81 79 98 79 68 78 88 80 87 89 78 76 86 88 73 76 81 94 99 94 77 71 60 61 96 97 66 67 64 97
84 83 79 68 70 61 67 83 91 98 99 97 94 95 98 98 86 77 84 80 71 69 80 74 86 73 77 80 90 86 72 71 73 69 67 85 94 80 74 68 64 69 63 95 96 95 94
81 81 80 69 70 63 67 82 96 98 97 81 95 96 98 98 80 88 97 80 73 74 75 85 84 82 75 84 87 73 70 71 73 75 76 87 93 90 89 88 82 82 88 76 66 80 93
83 80 79 70 72 64 68 81 91 98 97 94 96 100 100 88 96 97 92 77 65 85 82 81 73 75 78 85 92 89 91 72 69 73 93 84 96 96 80 71 59 62 69 73 91 84 63
82 78 80 75 70 66 67 79 88 98 98 96 96 97 100 75 98 97 78 70 70 87 93 86 87 76 68 80 88 84 69 52 68 70 81 79 100 94 100 94 94 100 78 64 62 68 72
82 77 79 75 72 63 68 79 88 96 99 100 96 100 98 96 87 78 77 85 80 66 66 67 72 73 84 88 72 71 71 54 60 61 66 79 100 98 84 94 89 96 94 67 64 79 74
82 77 78 74 66 60 69 79 90 99 97 92 96 95 89 97 98 79 75 74 80 89 71 68 86 82 88 87 80 80 71 58 60 66 83 95 100 100 93 85 97 95 81 76 74 62 66
75 76 78 71 74 60 69 80 88 96 90 98 99 95 84 84 79 76 78 78 83 74 84 85 94 78 85 92 70 61 62 59 60 84 86 92 100 100 100 96 96 94 92 85 64 64 60
74 74 72 74 72 62 67 79 86 93 95 97 93 95 77 80 84 83 78 80 81 74 84 74 82 80 84 79 69 63 71 69 63 83 95 99 100 100 95 93 96 100 86 84 70 66 70
75 74 74 72 75 64 64 80 90 97 98 100 97 100 96 94 79 76 78 76 81 77 81 79 78 86 67 62 70 71 73 78 73 72 82 98 100 100 100 99 98 74 65 62 68 75 75
78 75 75 77 68 66 67 81 91 97 99 100 99 100 94 92 72 75 76 80 82 81 87 84 78 73 78 80 86 86 93 85 80 80 82 73 83 100 100 93 67 77 90 89 94 88 76
79 74 78 79 70 70 71 78 91 96 96 98 91 99 98 92 90 70 81 84 93 93 89 88 77 78 88 93 90 100 79 86 86 84 76 76 76 84 85 94 66 48 66 56 72 77 67
79 74 78 79 73 73 73 79 90 94 93 99 98 100 93 91 77 72 82 83 79 85 88 89 88 99 89 92 94 96 82 73 88 87 91 86 86 90 88 90 80 55 45 49 82 62 54
79 77 78 79 79 73 77 79 87 91 88 99 96 95 100 88 79 69 72 87 91 85 93 90 98 99 99 94 97 90 90 91 84 75 82 80 75 93 88 91 85 53 43 50 49 63 57
76 78 76 79 81 78 80 77 83 89 91 92 98 94 100 92 89 82 72 65 66 71 85 95 94 95 94 93 92 90 91 94 84 91 74 86 74 78 73 76 60 54 52 56 56 66 66

GFSGBSN_925_rhum_006.txt.gz
RH
70 68 73 67 68 77 84 85 89 95 100 95 92 90 94 95 88 88 90 94 93 88 79 82 81 80 95 95 87 61 70 75 81 86 80 72 87 79 81 77 72 83 79 68 63 65 67
67 66 66 66 70 70 78 87 88 91 92 98 94 81 84 89 90 87 89 88 96 89 89 76 82 87 86 96 54 61 64 63 84 86 89 84 86 82 83 82 76 70 72 71 64 68 65
67 65 66 67 66 70 76 83 89 88 92 97 98 86 84 88 87 82 83 82 88 73 79 76 79 87 92 79 56 56 53 57 59 66 84 85 78 82 82 86 70 72 81 73 68 63 66
65 64 64 63 60 61 72 75 77 82 88 93 95 96 86 85 86 89 77 76 87 90 87 81 80 88 93 61 63 59 55 50 53 56 54 62 68 78 81 69 68 75 77 92 63 65 63
63 64 63 60 60 62 60 60 74 81 82 90 95 97 94 86 91 91 78 74 84 80 83 89 82 80 88 61 68 53 56 52 54 54 51 49 47 62 65 81 83 82 92 88 70 57 62
70 60 60 60 58 60 57 56 72 78 78 84 92 95 98 89 95 94 77 84 88 85 90 84 86 89 76 68 61 60 61 51 54 56 54 56 68 81 83 87 94 86 90 77 72 60 66
63 62 62 62 59 59 58 57 66 82 76 78 88 94 86 97 91 94 87 93 88 95 92 85 79 75 61 61 58 63 63 57 60 64 84 69 93 90 74 79 74 86 92 92 76 61 69
62 68 62 73 69 65 57 55 72 78 81 81 88 94 91 99 96 97 84 84 76 64 92 84 84 79 68 63 70 66 61 71 75 90 79 81 91 76 71 77 82 85 89 86 76 61 65
79 71 71 75 73 66 60 58 60 81 85 90 88 94 94 96 100 100 85 75 66 67 82 75 81 82 76 66 72 76 65 74 84 95 88 87 67 65 74 82 88 90 92 86 83 63 56
81 73 74 74 69 64 64 62 74 84 89 86 91 93 96 89 100 99 90 73 70 61 90 69 97 85 80 68 79 60 60 70 80 89 85 93 73 73 78 82 82 92 77 78 79 84 94
75 68 72 76 69 70 69 78 84 88 94 99 92 93 96 93 100 94 82 77 69 54 87 71 93 66 74 71 66 78 59 64 91 89 81 78 82 84 84 76 72 71 68 78 80 90 92
85 82 83 80 72 72 74 81 86 90 95 94 98 97 99 95 100 87 82 77 67 83 85 91 86 91 90 78 71 76 68 58 62 74 77 74 69 72 75 65 64 61 75 75 77 79 92
85 83 84 84 78 73 72 71 69 88 97 99 98 98 96 90 99 86 84 78 93 89 68 94 83 86 78 85 79 78 82 91 93 99 98 94 89 73 74 79 72 72 89 97 98 97 88
82 84 83 84 82 78 75 67 66 85 96 98 100 95 88 89 92 92 82 85 86 66 82 73 68 76 84 78 72 82 88 94 84 92 100 97 94 89 76 76 82 80 78 91 88 92 86
86 86 84 82 82 74 66 64 67 92 96 98 87 97 98 77 98 85 78 82 76 67 79 87 77 82 85 79 79 86 89 81 68 91 98 97 93 80 79 67 67 98 97 69 74 62 90
76 84 82 79 82 74 65 67 73 85 94 89 99 98 99 77 100 85 77 80 65 66 78 75 87 78 86 84 91 96 84 68 72 74 68 84 96 76 80 73 69 88 77 98 97 96 94
84 86 80 77 81 75 69 66 77 84 94 98 95 98 94 70 93 95 97 80 67 76 71 77 80 84 65 69 81 84 69 65 72 70 73 88 96 86 90 93 80 92 96 98 78 88 91
85 84 79 76 80 73 65 66 80 86 90 89 98 97 100 94 99 98 92 68 62 92 81 78 71 64 72 80 94 86 84 72 68 76 87 79 98 96 82 71 63 64 72 76 86 84 82
85 82 74 79 77 75 63 71 79 92 98 98 97 97 100 83 100 99 80 73 72 94 93 86 83 71 68 78 85 87 78 59 70 79 86 80 99 98 94 88 85 93 76 65 66 76 81
84 82 75 76 80 78 64 68 83 98 90 100 96 100 98 97 91 76 78 78 78 68 81 75 76 74 81 84 78 79 81 59 68 70 66 69 99 97 84 94 97 99 90 79 74 95 74
81 81 73 75 78 76 65 69 89 99 86 100 96 98 91 99 97 73 68 74 78 83 75 74 84 79 92 98 83 89 75 66 68 63 76 92 99 99 93 80 99 100 97 89 95 78 77
81 79 76 78 77 70 65 72 90 96 92 95 99 95 89 86 76 74 78 85 85 75 80 83 86 77 86 94 77 69 74 73 81 72 82 93 98 100 98 98 97 100 96 96 95 75 67
82 78 78 76 79 67 70 73 85 99 94 94 91 94 76 80 81 82 81 82 76 74 68 76 80 86 90 80 73 70 64 71 72 78 96 98 100 100 94 96 97 99 91 81 78 81 63
82 81 74 78 78 70 71 76 84 97 99 96 91 99 94 93 77 75 74 71 83 79 80 79 77 84 67 67 66 72 80 81 80 80 79 98 100 100 97 100 98 81 76 70 73 70 65
81 80 76 75 79 73 74 74 84 94 98 100 99 99 97 90 73 73 80 81 74 80 86 83 75 74 69 75 91 91 84 88 84 86 88 80 99 100 100 99 82 82 84 77 80 77 60
80 75 76 77 78 78 74 79 82 92 94 99 94 100 99 90 83 62 76 83 94 95 92 87 77 82 80 93 94 95 91 78 87 83 84 92 81 97 92 99 77 58 85 82 75 93 68
71 77 76 76 77 80 76 81 81 87 93 98 98 99 100 92 81 72 77 84 82 85 87 87 85 90 84 95 96 97 96 74 93 90 91 94 95 96 88 85 81 59 58 72 90 65 61
82 71 80 80 80 80 79 80 78 83 90 98 91 99 100 95 84 68 72 88 86 84 88 92 93 98 99 99 99 98 99 89 87 74 86 89 87 89 89 93 74 56 59 72 59 57 62
85 85 84 83 81 83 80 80 76 78 92 94 94 86 100 98 87 85 71 65 65 66 82 91 89 93 92 98 94 91 95 93 88 88 78 90 75 78 80 73 58 56 57 58 60 64 65

GFSGBSN_925_rhum_012.txt.gz
RH
70 70 70 68 68 66 65 69 65 67 64 64 80 84 97 98 98 92 94 89 88 92 81 80 76 78 87 79 72 67 68 75 84 86 74 63 57 50 56 50 53 58 44 46 44 49 47
70 67 66 64 66 66 68 65 65 64 62 60 72 82 88 98 98 94 92 83 90 95 80 88 75 82 69 81 63 67 64 72 77 84 69 66 66 55 55 53 55 49 55 52 48 46 43
66 66 66 69 65 72 71 71 71 66 63 58 67 82 81 92 99 99 91 92 94 93 82 89 78 86 72 51 58 56 60 76 81 76 75 74 66 58 56 61 56 54 61 46 42 41 45
71 68 68 72 76 72 74 74 72 68 66 62 57 80 77 84 99 97 98 99 83 87 89 90 80 78 64 67 71 56 57 57 69 71 73 74 71 59 55 55 51 57 56 56 40 46 41
67 84 88 76 67 79 75 72 70 66 64 62 70 68 80 83 95 92 100 100 87 89 86 94 75 62 64 65 66 61 54 53 57 52 66 68 52 51 57 55 55 52 48 56 48 41 44
84 66 71 76 80 86 74 76 72 69 65 66 71 77 82 89 94 90 97 100 97 97 96 88 82 75 66 60 64 65 60 52 51 51 54 55 57 58 57 61 54 47 60 50 47 41 49
74 73 79 76 83 76 75 77 76 73 68 78 80 81 90 94 91 96 90 100 99 96 78 63 64 60 61 62 64 62 54 50 49 56 70 64 78 76 55 52 47 55 56 54 47 48 52
76 80 79 76 82 76 76 79 79 74 73 86 90 88 95 88 94 94 95 96 66 58 83 68 63 63 66 61 65 62 56 53 55 62 60 73 84 53 50 52 58 59 61 56 45 42 49
81 80 74 84 80 83 82 78 81 77 81 86 76 88 92 90 89 87 92 95 62 59 58 81 68 66 62 60 59 66 53 55 59 70 67 63 58 54 60 63 68 61 62 56 55 47 46
81 64 84 82 84 84 82 80 82 80 82 76 84 90 87 87 83 83 92 82 77 75 94 74 84 72 63 57 64 55 50 53 67 64 64 63 50 63 64 66 59 64 47 52 60 64 66
78 82 77 81 84 85 82 80 84 81 71 71 84 94 91 93 87 77 97 88 82 82 94 66 83 66 60 55 59 73 57 56 66 66 65 64 70 73 78 66 57 61 53 54 56 62 64
74 76 77 83 85 85 79 82 78 74 70 70 81 95 96 95 87 81 87 100 86 93 88 85 84 92 87 65 68 69 67 51 51 63 65 56 54 55 54 55 56 53 59 61 58 66 89
68 74 79 85 86 78 82 83 77 72 66 77 91 98 100 99 78 88 90 95 98 92 60 93 84 82 69 72 78 70 79 86 76 95 92 64 63 56 54 63 58 60 74 72 80 90 64
85 87 82 84 81 76 83 78 73 66 68 83 96 99 87 96 82 90 93 99 95 57 62 62 71 66 69 65 77 71 79 88 67 67 76 78 71 62 58 62 56 67 63 63 62 43 41
83 85 83 81 75 78 80 79 78 66 70 84 98 93 93 93 91 84 98 98 89 54 61 66 75 77 81 61 61 71 76 70 62 66 83 89 76 59 60 54 56 71 90 55 72 56 79
81 80 80 76 75 81 81 78 68 71 81 87 98 95 90 98 88 86 100 99 62 62 55 55 70 58 69 71 67 67 70 56 58 54 47 60 83 56 56 64 62 65 55 86 90 79 66
80 83 76 76 82 83 83 66 73 79 90 96 96 92 99 88 80 96 100 89 76 56 53 60 67 65 57 67 62 64 60 55 54 60 54 58 64 69 75 81 61 80 89 94 73 72 70
82 84 80 76 83 84 80 69 80 88 97 95 96 100 98 85 99 99 100 69 67 69 69 63 53 55 58 62 69 64 65 54 47 61 76 59 68 85 70 46 46 44 54 61 92 78 88
80 84 81 78 80 80 77 75 84 93 99 100 97 97 99 88 99 100 90 73 76 75 74 66 66 56 53 63 73 58 60 50 54 58 60 62 91 90 72 68 58 70 56 54 81 84 88
78 82 82 77 74 78 76 76 86 92 100 92 97 100 95 88 78 75 71 72 81 71 75 65 68 60 60 62 58 68 67 58 52 53 58 58 66 85 66 66 61 100 78 77 96 92 68
79 81 81 78 75 77 79 76 86 89 96 89 97 96 85 100 86 60 59 68 76 76 69 63 68 61 62 70 69 69 64 62 61 62 62 65 100 92 77 66 77 89 85 93 99 79 80
74 73 71 73 76 75 80 79 83 88 86 91 96 97 76 84 69 58 70 68 68 76 67 72 68 64 63 66 65 69 66 66 62 62 66 71 89 97 96 79 78 97 88 94 97 94 69
76 81 72 76 74 77 81 78 83 85 89 95 94 92 91 84 74 63 67 63 63 63 68 65 63 68 77 69 59 59 57 60 62 65 72 89 100 100 88 63 72 96 96 96 95 92 75
79 79 80 74 80 80 81 80 82 81 90 99 96 99 96 85 72 61 61 63 65 61 74 72 65 72 67 61 59 63 62 65 73 77 60 91 100 100 97 90 96 84 78 82 83 79 71
80 76 79 80 83 81 83 82 84 81 88 96 100 99 97 81 64 62 61 62 69 70 68 70 69 63 61 64 77 75 76 81 74 75 74 69 90 100 99 98 69 68 75 86 78 64 52
78 76 75 78 80 82 83 82 86 81 85 84 100 99 98 94 72 54 60 60 65 70 77 72 76 73 72 81 79 93 77 66 69 74 80 79 82 99 100 98 91 66 54 60 59 65 52
79 77 77 78 81 83 83 84 86 79 82 86 94 99 98 99 70 56 66 70 67 69 77 75 78 82 84 84 85 95 82 68 69 70 85 90 96 96 96 93 64 53 54 69 65 56 54
80 79 78 76 75 76 81 80 77 78 79 85 84 97 98 98 84 67 61 73 76 68 71 73 81 87 94 96 96 86 86 67 73 62 67 64 78 87 78 76 78 51 58 58 53 52 54
81 80 80 78 76 75 74 73 74 76 78 81 89 88 88 99 92 88 77 69 61 56 68 81 75 80 80 93 93 94 82 75 68 67 63 74 59 57 60 54 46 49 52 48 55 57 57

GFSGBSN_925_rhum_015.txt.gz
RH
68 69 69 69 69 68 69 68 70 71 66 65 63 62 71 80 89 98 98 96 100 91 96 95 74 72 82 92 78 65 66 73 81 78 58 49 47 42 46 38 37 44 37 26 29 34 35
71 70 71 75 73 77 75 74 73 72 71 66 64 62 65 80 81 92 99 98 99 92 96 92 70 76 73 84 63 59 56 61 60 73 66 54 49 41 46 43 45 36 39 37 35 36 35
70 70 80 84 82 73 78 76 75 73 70 68 66 66 63 72 74 85 97 100 98 97 96 92 73 81 60 54 49 53 58 56 64 66 64 61 59 59 54 56 44 46 53 41 37 35 38
80 80 70 74 75 82 89 84 80 76 74 70 67 68 70 73 81 83 95 99 99 99 97 93 71 68 59 57 55 51 50 60 63 63 70 71 62 56 47 46 46 50 44 49 31 34 30
70 66 75 80 78 78 86 83 80 78 77 73 66 74 77 75 80 87 94 96 98 99 93 94 75 60 55 62 57 50 47 51 55 55 60 67 67 56 50 54 46 43 46 40 35 29 34
77 78 80 83 80 84 85 84 76 75 83 82 78 81 85 86 89 94 96 91 88 98 93 88 71 67 52 52 54 52 48 49 46 47 54 51 48 53 51 49 51 42 48 40 36 28 37
86 83 82 79 81 83 88 87 78 79 83 83 83 83 86 87 83 90 93 86 100 99 98 70 62 50 52 54 57 53 47 48 45 48 61 55 70 67 47 42 40 42 42 39 32 29 39
74 72 79 78 75 87 84 79 82 81 84 83 86 90 89 92 90 91 90 88 92 85 92 58 51 52 51 50 61 52 45 53 60 72 58 76 82 49 40 41 45 47 49 46 36 31 37
75 82 76 74 81 80 85 83 82 83 86 83 84 84 84 92 92 83 72 84 87 98 82 74 53 55 59 53 52 61 46 44 58 62 58 66 51 46 48 51 56 49 51 47 44 37 38
83 72 74 76 79 85 85 82 83 84 84 81 77 77 85 94 82 77 70 82 81 95 100 94 80 59 58 51 60 48 44 46 55 58 55 58 43 50 50 56 49 55 37 40 46 51 54
80 82 88 85 84 86 84 81 84 79 74 73 73 82 92 96 96 77 76 100 84 94 96 73 74 52 50 50 57 62 44 53 56 52 53 58 56 57 61 52 45 51 46 48 49 55 56
76 87 85 82 82 81 80 83 81 76 75 70 77 84 84 94 86 80 76 96 93 99 95 87 79 82 69 50 58 58 60 48 42 49 50 45 44 48 47 46 46 47 51 53 53 64 83
82 85 82 80 77 76 80 81 77 76 73 73 83 98 98 98 85 70 82 90 99 97 60 95 75 76 65 64 65 67 73 74 69 91 84 58 54 48 44 56 50 54 67 69 80 90 64
84 87 83 76 79 80 81 79 69 68 78 88 94 90 92 99 82 91 92 87 98 61 60 56 74 67 73 60 59 61 69 74 52 52 62 77 74 54 52 55 52 61 60 59 52 38 34
85 87 85 77 79 81 81 73 70 83 87 95 93 92 88 82 84 80 90 86 98 53 57 71 69 77 75 63 64 61 61 64 50 50 75 70 70 46 48 46 47 60 81 50 67 50 61
88 87 85 77 83 80 82 70 75 84 88 92 99 91 80 92 88 81 90 98 77 48 50 52 67 59 72 63 71 62 60 47 53 44 41 53 75 48 47 51 49 54 46 81 86 80 54
88 81 85 80 78 74 84 72 83 90 98 99 97 95 96 92 82 85 97 99 64 48 48 53 53 55 53 58 52 57 56 48 42 46 45 48 56 67 63 68 50 67 74 85 59 70 74
87 86 80 84 78 76 82 75 85 95 100 93 92 100 98 80 95 87 98 95 57 61 61 52 44 43 46 47 51 49 49 45 40 44 56 48 60 80 63 40 39 42 56 55 89 67 77
79 81 77 84 79 79 79 79 86 94 96 94 95 95 96 100 89 78 95 80 58 70 64 56 54 45 43 48 58 48 47 43 41 50 50 51 74 82 79 56 43 52 48 48 61 78 92
75 80 73 74 74 74 82 81 86 87 97 85 95 100 94 78 76 66 93 68 73 65 61 54 53 44 48 50 48 52 56 53 44 46 62 50 61 83 63 68 54 95 71 62 82 97 71
76 82 78 77 76 77 82 82 85 81 80 86 90 90 78 94 69 74 69 62 71 63 58 50 54 48 45 53 53 55 52 54 52 54 52 55 99 78 65 59 66 74 72 71 98 94 97
77 78 80 75 82 78 83 83 84 87 79 90 96 97 73 64 51 52 58 56 59 63 55 56 52 50 50 51 52 57 54 52 53 56 58 62 90 92 93 68 68 82 64 72 95 94 95
78 76 75 77 84 82 83 82 85 84 91 94 94 89 96 66 53 48 51 51 56 53 61 54 53 58 60 56 54 52 49 47 51 59 66 77 97 98 80 55 62 84 95 96 95 88 93
80 76 74 75 78 80 82 82 87 82 90 98 94 96 96 72 51 47 49 50 53 56 62 61 53 57 65 53 54 53 53 54 53 64 67 85 99 98 100 82 91 69 65 75 85 68 56
80 77 76 77 78 82 84 84 88 81 85 93 100 99 96 75 59 51 49 54 55 49 58 62 60 57 52 56 64 58 71 74 66 63 73 78 87 100 100 80 58 66 58 77 91 74 48
82 80 78 77 75 75 82 84 81 81 82 84 97 94 98 100 58 44 49 49 61 58 65 59 63 60 58 66 70 71 74 58 65 85 74 72 72 97 98 97 82 62 46 53 58 67 48
85 82 80 79 78 76 74 75 76 78 81 82 90 93 98 95 58 53 50 52 47 50 55 66 70 74 65 89 83 74 78 58 63 61 79 89 94 98 97 96 68 48 46 52 69 57 51
81 83 82 81 80 78 75 73 73 76 78 80 83 90 93 97 85 64 45 54 56 53 60 66 73 73 79 82 78 74 75 59 62 47 55 62 71 78 80 95 81 42 45 60 51 47 46
84 88 82 82 81 79 77 74 72 72 74 79 82 77 89 97 89 89 71 64 52 45 57 63 70 67 71 84 94 91 93 64 57 67 48 63 47 56 53 50 38 40 46 42 47 50 48

GFSGBSN_925_rhum_018.txt.gz
RH
74 72 71 79 77 81 78 76 75 76 74 73 70 68 67 68 68 74 84 96 100 98 98 96 82 78 85 95 79 72 65 73 80 80 65 49 48 46 51 40 36 41 37 30 28 31 32
71 76 87 78 72 77 79 86 85 81 80 74 74 71 70 70 69 72 76 90 100 99 95 98 86 76 86 88 61 56 55 60 68 77 71 52 44 41 48 39 40 36 39 38 36 33 35
81 75 67 72 79 78 76 88 89 89 83 76 75 73 69 68 75 72 76 86 99 98 97 95 90 86 65 62 50 60 56 52 56 66 64 60 53 53 52 56 45 44 57 48 43 40 40
90 77 78 82 88 82 84 89 92 92 80 73 78 82 80 74 75 76 80 86 98 99 100 87 91 80 63 48 50 49 50 54 58 62 65 67 59 57 55 49 46 55 55 68 35 37 36
80 86 74 72 78 73 78 89 87 76 76 83 82 82 82 78 82 84 89 93 96 98 100 82 85 75 64 58 56 51 44 50 56 56 73 73 63 61 52 58 59 53 62 55 43 35 34
81 72 79 75 78 85 82 85 83 84 81 81 82 84 85 84 88 88 80 93 68 86 99 96 72 75 54 56 49 48 44 47 55 63 68 70 65 63 60 64 73 54 56 47 44 36 36
81 79 74 73 75 76 80 83 84 84 83 81 85 85 88 84 91 93 79 76 95 100 96 83 68 52 46 51 53 49 45 48 46 66 68 59 70 78 58 54 49 46 50 52 39 30 37
71 74 79 86 85 83 83 84 84 79 81 83 86 87 87 87 89 90 92 83 83 100 98 84 54 49 50 51 60 51 45 58 60 73 58 70 82 54 44 40 46 49 56 56 42 34 37
78 75 89 86 82 82 81 83 79 81 84 86 83 80 75 82 92 86 80 78 79 95 98 84 60 56 55 49 57 59 46 51 63 68 73 64 53 46 51 52 55 55 57 54 50 42 40
76 79 88 80 76 78 78 81 82 78 78 80 80 74 82 96 84 82 74 90 86 92 100 99 87 58 56 52 59 46 43 46 59 71 65 64 46 46 52 57 50 62 42 44 46 56 68
80 79 86 80 77 76 78 81 80 76 72 76 76 75 84 79 95 79 72 88 95 92 100 95 83 49 52 56 61 60 45 47 58 56 59 66 56 59 60 50 45 51 49 50 52 62 73
73 81 87 83 84 76 81 81 82 68 68 76 85 91 95 98 97 84 76 88 88 99 98 99 83 74 74 56 58 57 56 48 43 46 51 51 44 47 50 44 46 47 49 53 56 66 96
75 85 90 84 82 80 77 83 72 69 82 89 93 98 96 97 91 84 83 92 99 98 78 96 88 72 62 63 70 67 76 78 76 90 86 60 58 48 45 54 51 53 65 93 96 96 89
78 87 88 86 80 81 75 85 69 76 88 94 98 90 86 99 88 80 85 96 95 92 73 58 70 68 64 60 70 71 76 79 61 60 78 87 84 58 49 58 61 64 66 89 77 83 68
76 87 87 84 84 76 78 79 73 85 94 92 92 85 83 92 89 71 93 84 98 89 58 71 70 77 72 61 63 69 76 71 55 51 81 81 71 47 50 48 52 67 83 55 78 62 86
80 81 82 83 84 82 78 73 79 96 97 98 96 82 88 86 78 80 98 87 100 53 54 52 68 57 73 67 66 67 64 51 50 46 45 56 74 50 52 47 50 57 49 85 88 95 81
80 78 75 78 76 74 78 76 83 95 100 84 81 92 88 77 74 88 99 100 90 50 48 52 56 56 53 66 60 60 55 46 44 45 43 46 60 68 66 70 67 68 74 72 72 83 94
80 78 72 79 80 75 82 79 84 96 95 75 84 97 92 84 95 95 98 97 69 64 58 48 41 42 50 51 55 54 52 46 40 44 57 46 62 92 80 50 49 54 64 62 86 79 80
75 75 82 77 81 78 81 82 86 92 99 94 94 92 81 97 95 91 94 84 59 68 62 54 49 43 40 48 56 48 48 42 40 48 53 51 82 94 88 62 48 57 53 53 59 71 90
77 78 78 77 83 79 83 84 81 84 96 88 95 96 89 93 82 81 96 77 91 69 55 48 47 42 44 48 45 54 56 51 43 48 56 50 63 85 91 78 72 98 79 63 68 98 80
78 78 73 77 84 82 83 85 79 74 87 93 88 86 70 90 69 73 74 79 68 58 54 47 50 45 46 54 51 54 53 57 50 59 51 55 98 83 75 64 65 72 74 71 94 94 98
79 78 75 74 76 78 82 85 82 79 80 82 93 98 87 61 55 65 61 67 65 58 57 53 51 44 45 49 57 52 51 53 60 57 59 60 97 98 89 75 75 82 72 71 75 95 96
80 78 76 76 76 81 84 87 84 82 91 95 90 88 95 56 53 55 49 53 58 57 60 53 50 54 56 64 57 52 51 50 54 60 66 86 99 98 90 66 73 87 75 85 84 78 88
82 81 78 76 77 76 83 85 82 83 84 99 94 98 97 67 55 49 47 49 54 59 66 59 50 53 68 51 53 55 57 54 55 60 59 91 100 100 98 90 92 70 68 69 80 78 71
82 83 79 79 78 78 77 76 78 80 83 80 99 99 98 98 53 48 48 50 51 60 63 63 62 61 54 59 72 64 74 67 66 61 70 73 94 100 100 96 67 63 71 66 82 80 59
88 77 82 80 81 80 78 77 75 77 80 75 97 91 98 100 66 54 49 52 66 62 67 63 64 65 63 74 78 72 74 83 82 86 74 78 84 98 99 98 90 60 54 62 62 95 55
94 81 86 81 82 81 81 78 75 74 76 79 88 89 97 99 70 78 54 55 50 55 67 67 76 80 70 81 88 77 81 67 72 79 93 95 96 97 97 98 79 49 46 53 92 70 61
97 90 81 86 82 82 80 80 76 74 74 77 78 83 88 98 88 70 65 64 53 58 64 74 82 78 83 90 81 79 82 67 70 58 69 75 86 91 91 98 94 44 49 65 62 57 56
99 90 78 81 84 83 83 79 77 76 73 74 72 78 75 98 89 84 79 75 71 66 67 69 74 70 79 88 89 88 90 89 77 80 57 67 59 66 69 71 47 47 52 46 53 59 59

GFSGBSN_925_rhum_021.txt.gz
RH
83 86 76 76 77 76 81 84 87 93 88 85 81 75 73 73 71 74 66 72 72 95 99 99 89 90 86 96 84 64 67 67 75 76 73 75 69 57 59 52 46 48 44 40 38 38 36
83 82 76 84 81 84 77 74 86 93 94 86 74 74 74 79 81 74 75 66 72 90 99 100 91 88 95 94 60 60 64 74 78 74 82 74 59 50 52 54 49 41 43 44 43 44 43
78 89 76 68 71 81 85 87 87 87 84 76 80 82 81 81 82 74 73 77 75 86 97 100 85 91 79 71 59 55 54 61 62 70 77 71 58 57 54 56 49 48 58 56 53 49 48
93 77 78 81 75 73 76 77 84 87 85 85 84 83 83 81 80 78 83 83 84 90 97 100 86 89 89 53 53 58 56 56 56 63 63 71 58 58 56 50 49 57 58 79 54 47 47
83 80 77 79 80 85 83 82 85 84 85 85 82 83 84 84 87 88 88 88 88 93 86 99 98 88 78 55 54 49 47 54 56 70 77 80 79 67 56 63 66 61 78 73 61 39 43
85 80 81 91 86 82 78 82 83 82 80 78 80 87 87 87 88 91 92 92 69 86 79 100 90 87 70 64 56 49 43 47 64 72 81 85 90 84 72 69 88 70 73 56 54 40 38
83 77 84 88 79 74 76 78 77 76 80 82 84 87 85 85 86 89 92 86 84 97 97 89 80 68 55 51 49 54 45 52 62 72 85 89 88 91 76 69 59 61 56 62 53 40 42
86 76 83 84 77 72 73 77 76 80 75 78 85 87 81 77 92 93 93 92 92 95 98 86 67 58 54 51 63 55 45 64 68 85 65 75 88 70 59 56 60 60 61 65 53 40 43
84 68 82 83 81 82 76 80 81 79 75 74 74 77 80 85 78 82 81 82 88 82 99 91 82 63 61 54 65 64 54 58 68 74 68 81 59 54 57 58 57 58 63 63 60 50 47
83 71 84 86 81 85 79 76 82 81 72 69 72 78 80 82 80 87 79 99 98 81 99 99 90 64 58 58 70 49 48 53 63 74 72 69 47 51 61 64 56 67 51 52 57 63 75
74 73 84 88 83 87 80 76 84 76 71 81 88 93 95 95 86 90 84 98 88 89 97 98 90 54 61 69 64 60 46 49 68 70 74 85 64 59 58 56 48 60 52 56 59 69 73
74 79 86 90 84 84 78 75 85 74 78 90 95 98 99 95 100 80 79 92 90 97 96 100 82 78 79 65 65 63 58 51 47 57 62 57 46 51 58 48 48 48 56 57 63 76 96
82 78 82 89 82 84 82 78 74 76 91 96 99 98 90 94 88 84 90 97 96 97 95 100 93 77 74 79 75 69 74 77 79 91 97 68 62 49 47 60 52 59 69 95 91 94 89
82 75 72 78 80 77 70 76 75 88 97 100 94 81 88 99 84 82 94 91 97 99 96 75 72 72 79 70 79 70 80 83 69 65 89 89 86 67 55 62 71 73 66 90 91 96 81
84 73 82 77 79 72 78 77 78 94 98 86 67 77 85 87 82 85 95 97 98 99 71 80 68 70 78 65 78 74 75 68 64 64 80 90 78 56 54 50 56 70 85 60 81 72 93
78 72 84 77 77 76 78 78 87 98 92 72 73 78 92 81 82 81 99 94 100 70 67 57 89 68 83 72 80 74 79 62 56 54 53 60 79 57 58 50 51 61 58 86 92 100 95
80 75 76 77 82 81 82 81 84 97 80 71 75 95 80 83 82 91 100 100 87 52 61 65 66 65 61 69 72 70 74 54 52 56 55 49 64 74 62 73 75 72 83 73 76 91 98
78 77 73 77 85 83 84 86 83 97 81 79 84 89 76 81 92 95 100 100 89 70 63 54 46 53 58 66 69 63 66 53 46 45 60 50 71 97 80 62 58 62 70 69 86 78 91
78 79 74 80 80 78 82 88 84 96 94 88 94 92 73 80 98 100 93 78 74 83 66 56 56 47 50 56 63 54 56 44 48 45 61 54 78 93 81 71 58 69 64 63 63 76 84
79 78 76 75 76 78 82 90 84 94 81 80 89 97 89 96 92 88 87 91 83 68 61 55 50 45 50 51 50 58 68 50 48 54 55 50 74 80 86 79 79 86 75 67 71 97 78
83 79 77 77 75 78 86 87 82 78 82 82 95 92 77 95 88 84 87 81 68 68 56 53 53 48 51 58 57 65 65 60 52 58 53 61 88 92 80 75 77 77 76 73 84 78 97
85 82 77 78 78 77 78 81 82 80 77 80 95 96 87 94 70 77 68 71 70 66 70 59 56 54 63 70 65 64 63 66 67 64 62 66 98 96 98 76 81 91 78 72 72 71 78
88 83 80 78 80 80 79 78 80 84 81 89 88 89 96 88 67 66 65 70 64 64 62 62 54 60 80 76 68 63 56 56 55 69 71 81 96 98 96 74 85 93 79 70 78 80 82
93 83 83 80 80 81 81 78 77 81 82 97 97 99 97 91 71 64 54 54 59 67 70 61 56 68 70 55 57 58 60 59 62 63 68 95 99 99 99 89 90 68 71 70 84 73 74
89 92 78 84 82 83 80 80 77 76 80 81 96 98 98 99 91 64 51 52 68 63 66 70 67 66 62 62 79 78 84 68 62 67 76 76 94 100 100 96 74 63 75 78 86 74 64
90 98 82 84 85 81 84 80 78 76 76 75 98 84 97 100 87 76 76 55 76 75 72 76 70 70 66 83 86 81 73 80 91 90 71 82 83 99 98 99 96 60 59 65 70 87 56
90 97 93 79 87 85 80 77 82 79 76 74 85 76 92 99 85 80 81 70 60 67 81 77 84 82 74 88 94 87 87 68 91 91 95 95 99 98 98 98 82 60 52 65 88 65 62
90 94 94 78 82 88 79 82 81 80 79 73 72 91 73 99 91 73 69 86 92 63 70 79 81 82 90 96 91 90 88 78 76 74 86 88 94 96 97 99 93 49 60 69 58 59 59
89 92 99 82 72 80 83 81 81 73 78 79 71 69 83 96 87 84 74 66 69 76 83 76 79 79 82 92 91 89 88 87 87 90 61 76 71 78 79 75 51 49 52 54 58 63 61

GFSGBSN_925_rhum_024.txt.gz
RH
78 80 92 71 73 76 74 80 83 87 86 85 82 80 76 78 79 82 82 73 69 64 73 91 99 99 90 94 84 63 69 81 78 74 75 73 76 66 67 62 57 54 49 44 43 45 42
84 90 77 80 77 75 78 80 83 83 82 85 85 85 84 82 82 86 82 73 72 73 70 86 99 100 89 93 58 57 66 74 75 76 76 76 76 62 57 56 57 46 46 44 45 46 46
81 78 80 78 86 92 87 86 84 84 83 82 85 87 84 82 83 83 78 79 80 77 77 90 95 99 82 72 58 62 66 71 74 78 86 78 72 60 57 60 51 50 55 54 51 49 50
79 82 73 86 88 84 75 79 83 79 80 82 81 81 85 88 86 87 88 84 82 84 85 91 96 99 78 52 55 61 59 67 67 70 67 69 70 59 61 52 52 59 62 72 52 46 47
78 78 80 87 88 78 72 74 75 74 72 79 80 81 86 87 86 87 90 89 86 90 87 90 99 90 66 54 59 57 57 58 60 75 79 70 64 67 58 70 72 67 78 77 66 49 47
81 83 80 83 81 83 78 75 77 78 73 80 81 83 87 85 87 86 88 90 64 86 84 93 99 93 68 69 55 52 51 55 66 86 85 84 91 86 78 73 93 74 81 66 62 44 44
83 81 76 85 88 84 83 77 79 82 82 72 74 80 87 87 82 92 93 82 79 91 90 84 87 71 61 55 54 53 47 62 80 80 95 88 91 96 83 72 59 60 60 64 58 46 48
78 81 78 88 90 82 86 80 78 84 84 83 71 73 75 79 89 88 89 94 90 87 97 82 74 71 55 52 67 59 49 75 83 88 76 85 94 74 72 72 68 65 69 72 58 47 45
78 71 80 87 90 82 85 80 74 85 81 74 78 86 84 85 86 73 81 80 80 81 98 88 87 67 61 54 67 71 54 61 78 77 73 80 69 62 70 61 61 61 65 64 64 56 48
78 78 81 84 90 82 86 83 81 84 76 80 88 94 96 94 98 78 82 96 96 75 98 99 95 79 59 60 73 52 51 56 65 76 68 68 48 66 72 66 60 69 53 55 58 63 79
82 83 81 74 88 79 82 75 72 73 79 89 94 97 98 96 91 89 85 85 83 79 96 98 94 63 63 70 68 66 47 52 71 73 72 81 67 61 70 64 54 63 52 56 58 71 71
75 77 81 73 80 78 70 77 76 81 94 100 99 97 96 85 99 94 87 83 93 95 96 99 86 80 78 66 70 64 59 50 51 70 67 60 47 53 56 51 51 54 56 67 75 76 92
82 76 80 75 76 73 72 73 85 94 98 90 71 82 94 89 92 92 84 90 93 96 98 99 94 76 76 82 76 73 72 70 83 98 100 74 64 50 50 64 57 58 67 85 83 97 82
82 74 78 82 76 80 74 82 92 98 88 72 78 86 96 87 83 81 91 96 91 100 100 79 77 71 89 75 79 75 75 82 68 73 85 90 85 65 53 62 71 66 65 80 70 96 86
81 78 76 74 80 82 79 86 88 96 76 66 69 84 95 93 80 85 97 94 98 99 92 90 65 80 81 80 86 73 72 77 69 64 78 89 76 58 55 53 57 72 84 62 81 76 94
81 77 74 79 83 81 80 84 87 97 88 68 66 77 89 81 83 84 96 98 100 92 64 60 93 74 86 84 84 76 72 58 57 58 54 65 83 64 59 51 53 60 61 86 92 98 91
84 81 76 75 76 80 84 86 88 98 86 70 72 90 69 77 81 92 100 100 92 58 63 61 70 64 59 69 79 75 77 59 54 55 54 53 72 74 65 73 76 76 85 78 78 88 98
80 80 78 77 78 82 87 87 89 98 89 71 84 92 67 75 93 97 100 98 89 78 66 61 53 57 58 72 75 71 79 62 52 55 67 52 76 94 83 61 59 65 73 74 90 77 94
87 80 79 79 78 79 83 85 87 96 93 93 94 96 77 80 93 97 89 87 80 78 70 56 56 50 56 71 72 60 57 48 53 54 62 54 77 94 80 72 68 73 69 67 68 77 92
87 81 80 80 80 80 80 84 86 81 80 80 91 90 87 93 91 86 89 88 74 60 60 54 55 50 52 54 51 66 64 53 51 53 57 55 79 77 86 76 79 85 75 72 76 98 86
89 87 80 80 81 81 81 82 85 75 74 83 95 94 91 98 82 79 89 81 74 72 62 53 51 49 54 63 64 74 64 59 59 56 59 62 86 90 82 77 79 80 78 77 88 74 93
87 87 84 79 82 82 82 81 81 74 78 77 92 90 82 96 83 78 72 72 78 70 70 64 66 63 54 70 66 74 68 66 64 63 65 67 96 94 95 82 87 92 81 77 73 67 68
86 95 83 84 81 84 82 82 80 80 76 88 87 88 96 85 82 73 67 66 64 64 59 62 60 75 81 76 69 61 53 58 61 69 75 78 93 99 97 77 86 96 86 79 73 70 74
88 97 84 86 85 84 84 81 80 80 78 98 95 98 95 92 88 74 69 58 62 68 67 66 65 71 69 57 57 62 67 60 60 61 68 89 97 98 98 86 92 65 60 62 69 75 78
89 92 98 81 88 85 81 83 81 79 79 78 87 95 98 91 88 83 79 59 66 64 68 71 71 69 64 62 81 84 86 65 68 65 76 74 89 95 94 90 75 64 72 79 88 75 67
91 93 99 90 83 88 90 84 79 81 79 65 88 77 96 100 93 86 83 64 76 77 77 77 72 72 66 84 86 84 89 76 92 94 75 79 81 98 100 99 96 57 62 65 66 94 67
91 94 96 94 81 82 90 80 83 84 82 76 76 78 91 100 86 88 94 87 71 74 81 78 81 77 73 92 95 92 87 76 96 92 98 99 98 98 99 97 85 60 54 66 83 66 63
94 94 93 99 85 77 78 86 82 84 78 80 75 88 81 95 85 70 73 83 89 77 84 80 82 84 93 95 93 88 88 84 82 78 88 86 95 99 99 100 92 53 67 73 58 61 59
96 94 94 95 100 84 81 88 77 80 81 76 74 72 72 90 86 76 72 65 70 72 94 81 74 85 86 93 92 90 90 88 89 89 71 90 74 82 84 78 52 48 54 54 60 66 62

GFSGBSN_925_rhum_027.txt.gz
RH
89 75 73 80 75 88 94 90 86 85 81 80 83 85 86 87 84 86 85 83 80 72 72 73 74 92 99 95 80 59 73 80 84 83 85 78 78 72 73 68 59 59 53 48 45 46 46
87 75 84 71 85 89 88 72 74 81 83 79 81 82 83 84 81 84 84 80 75 75 77 75 80 96 99 90 53 48 56 84 85 81 79 73 75 62 62 58 67 52 52 48 45 45 46
82 74 81 78 88 87 83 77 75 79 71 72 82 84 81 83 86 88 84 84 80 79 79 78 83 100 98 73 56 62 63 73 84 80 85 69 68 60 60 62 51 52 57 54 54 50 51
89 81 82 69 78 88 82 77 82 79 80 68 79 77 79 86 86 86 88 86 84 86 83 81 87 100 92 68 50 64 73 73 69 74 71 70 69 65 60 53 56 64 63 73 52 50 48
84 74 83 73 90 90 87 83 81 79 83 80 80 83 84 86 86 87 87 86 84 86 86 83 90 98 81 55 59 49 62 74 80 81 72 72 71 71 58 72 74 69 84 77 64 49 50
87 78 81 73 90 89 86 85 85 81 82 84 82 78 79 83 83 88 91 88 82 89 81 88 93 92 84 71 53 56 55 66 74 90 88 82 88 87 81 82 86 80 75 71 66 46 52
86 84 72 80 91 89 88 86 86 74 84 88 86 74 73 76 80 90 78 77 77 79 89 81 88 83 75 62 53 61 53 68 84 89 94 90 98 94 85 74 62 63 66 67 58 49 50
80 80 80 79 76 87 82 84 86 83 84 85 78 81 89 86 88 89 78 91 85 81 89 70 78 82 60 58 67 68 54 79 90 94 89 96 95 81 72 78 74 69 73 75 62 52 49
78 75 78 81 74 82 80 69 71 73 77 78 84 92 96 93 97 85 80 79 79 81 95 69 81 85 63 57 71 72 58 67 91 86 79 90 79 86 83 88 84 69 71 67 66 58 51
80 80 74 86 71 70 69 75 80 86 99 99 99 97 85 94 97 88 87 84 82 84 93 97 90 78 60 63 76 54 52 59 75 84 72 70 57 84 84 76 63 74 54 57 60 64 78
80 80 76 85 70 77 74 83 92 97 92 91 91 93 86 90 90 85 84 89 90 83 95 99 94 74 62 68 70 65 51 54 75 81 71 86 64 79 82 69 54 64 53 57 61 72 68
80 80 77 78 73 82 79 86 91 91 94 96 97 97 92 88 91 89 89 90 88 96 97 99 93 88 78 71 72 67 62 50 58 73 61 62 49 53 56 56 52 55 58 67 78 75 90
82 80 79 76 79 78 81 91 89 92 89 95 98 82 85 84 95 85 83 87 94 95 98 100 93 76 72 80 78 75 71 74 88 98 99 77 66 52 54 64 57 57 66 80 71 90 76
83 80 79 76 74 77 83 87 92 94 92 80 86 72 74 79 75 81 85 88 94 98 100 87 74 74 89 76 78 78 75 81 68 76 99 94 94 64 52 61 70 64 63 77 54 86 83
87 83 80 77 78 81 83 85 93 99 78 68 70 82 91 92 83 86 94 96 97 99 88 88 68 93 100 83 87 94 78 77 69 63 79 82 78 59 55 56 57 74 84 62 82 80 93
88 83 81 80 79 82 85 86 93 99 83 64 67 77 81 84 86 87 92 97 99 93 67 65 94 79 85 92 88 90 69 59 59 59 56 68 86 65 60 52 59 61 64 84 92 70 85
88 83 82 82 81 82 83 86 95 99 83 63 70 84 67 72 81 93 99 99 86 62 66 60 78 68 74 78 79 73 76 59 53 59 54 58 72 75 65 73 79 76 87 82 79 84 89
90 84 82 84 84 83 83 86 90 98 94 62 82 88 65 71 92 98 100 98 84 85 69 66 55 56 67 71 74 71 76 65 54 58 64 55 78 96 79 63 61 66 75 77 85 77 96
88 89 84 83 85 84 84 84 86 93 100 87 90 93 67 78 95 88 84 91 87 76 65 58 56 51 59 68 72 65 65 50 57 58 64 58 79 92 85 73 70 72 72 69 70 79 90
90 92 88 83 85 85 84 83 82 84 83 85 90 91 90 92 91 84 95 87 76 62 61 53 56 54 59 61 56 71 63 60 56 55 57 56 75 76 84 74 82 88 78 74 77 99 87
87 95 87 85 84 85 85 84 83 69 78 83 94 96 95 98 85 84 88 81 76 82 67 51 53 54 55 68 67 75 65 61 60 63 62 60 85 89 80 75 77 78 74 80 88 76 87
90 92 90 87 84 86 86 84 83 71 75 80 91 87 81 92 92 82 75 73 77 72 70 65 56 54 52 65 62 78 68 65 63 62 66 68 96 90 93 80 88 92 82 81 78 74 74
91 90 98 89 87 86 85 86 82 81 79 88 90 85 91 83 88 77 70 69 67 67 61 66 65 77 79 75 68 56 53 56 56 70 76 76 92 94 97 79 88 94 86 80 79 73 70
93 90 96 96 90 90 83 82 83 83 68 94 87 99 82 92 93 83 84 80 67 69 64 70 65 69 69 59 59 63 68 63 62 61 66 86 91 94 96 85 96 60 63 66 71 67 70
90 90 95 99 84 86 91 75 75 83 82 70 81 96 97 88 78 87 83 86 69 66 72 72 73 71 68 65 80 82 81 68 67 64 74 70 85 95 91 90 77 63 74 83 82 75 70
95 91 96 96 92 88 88 88 80 85 86 70 82 79 94 100 91 86 97 87 79 78 78 78 74 73 69 86 83 90 96 79 87 93 79 78 79 98 99 98 98 55 66 66 65 86 64
96 96 95 92 98 89 80 83 88 82 87 72 68 75 88 93 76 85 96 95 83 77 82 79 80 75 73 90 92 91 87 76 91 92 99 100 100 97 99 96 84 60 53 67 79 67 57
94 97 95 80 95 99 90 83 89 84 75 82 69 79 72 95 86 72 77 83 85 90 87 77 82 85 94 91 92 91 90 87 87 80 93 93 95 99 93 100 94 60 73 73 62 64 62
90 98 96 93 93 95 99 91 83 79 81 87 78 68 70 93 81 65 62 56 68 76 82 86 78 86 89 92 95 92 95 92 87 91 77 93 87 92 85 77 54 54 58 57 62 69 64